[[{"header":{"parameterUnit":"m.s-1","parameterCategory":1,"la1":30.2991,"la2":30.254,"lo1":-89.0895,"lo2":-89.0444,"dy":0.0017,"dx":0.0017,"nx":28,"ny":28,"refTime":"2025-07-31T09:00:00:Z","depth":0,"parameterNumber":2,"parameterNumberName":"U-component_of_WINDS"},"data":[0,0,0,0,0,0,0,0,0,0,0,0,0,0,0,0,0,0,0,0,0,0,0,0,0,0,0,0,0,0,0,0,0,0,0,0,0,0,0,0,0,0,0,0,0,0,0,0,0,0,0,0,0,0,0,0,0,0,3.5139,3.5141,0,3.5272,3.5274,3.5275,3.5269,3.5267,3.5265,3.5263,3.5402,3.5407,3.5413,0,0,0,0,0,0,0,0,0,0,0,0,0,3.4881,3.4886,3.5139,3.5141,3.5142,3.5272,3.5274,3.5276,3.5269,3.5267,3.5264,3.5262,3.54,3.5406,3.5413,0,0,0,0,0,0,0,0,0,0,0,0,0,3.5001,3.4887,3.5139,3.5155,3.5157,3.5272,3.5274,3.5276,3.527,3.5267,3.5264,3.5261,3.5398,3.5406,3.5414,3.5522,0,0,3.5439,3.5443,0,0,0,0,0,0,0,0,3.4995,3.5011,3.5151,3.5154,3.5157,3.5251,3.5234,3.5359,3.527,3.5227,3.5263,3.526,3.5354,3.5366,3.5397,3.5528,3.5534,3.544,3.5445,3.5448,3.5451,0,0,0,0,0,0,0,3.4986,3.5005,3.5192,3.5153,3.5157,3.5156,3.517,3.5257,3.5305,3.5231,3.523,3.5246,3.5355,3.5389,3.54,3.5536,3.544,3.5447,3.5452,3.5455,3.5764,3.5767,0,0,0,0,0,0,3.4974,3.4998,3.5188,3.5196,3.5067,3.5163,3.5178,3.5224,3.5304,3.5314,3.5248,3.5245,3.5377,3.5391,3.5405,3.5537,3.5448,3.5456,3.5461,3.5761,3.5765,3.5768,0,0,0,0,0,0,3.4969,3.4991,3.5182,3.5097,3.5121,3.517,3.5221,3.5228,3.5262,3.5318,3.5326,3.5274,3.5375,3.5394,3.5493,3.5542,3.546,3.5467,3.5757,3.5762,3.5766,3.5802,0,0,0,0,0,0,3.4961,3.4989,3.503,3.5098,3.5126,3.5267,3.5224,3.5233,3.5276,3.5273,3.5344,3.5353,3.5374,3.5481,3.5501,3.5552,3.5473,3.5753,3.5759,3.5765,3.5797,3.5808,3.5817,0,0,0,0,0,3.4952,3.5035,3.5032,3.5055,3.5178,3.527,3.5286,3.5308,3.528,3.5322,3.5358,3.5351,3.5533,3.5491,3.5514,3.5568,3.575,3.5757,3.5764,3.5792,3.5806,3.5817,0,0,0,0,0,0,3.4973,3.5045,3.5042,3.5149,3.5204,3.5269,3.5322,3.5321,3.5385,3.538,3.5405,3.5421,3.5521,3.5554,3.5506,3.5677,3.5638,3.565,3.5651,3.5665,3.5674,3.5665,3.548,0,0,0,0,0,3.499,3.5058,3.5117,3.5206,3.5233,3.5273,3.5314,3.5326,3.5384,3.5407,3.545,3.5507,3.5577,3.5622,3.569,3.5802,3.5817,3.585,3.586,3.5868,3.5879,3.5941,3.5956,3.5792,3.5792,3.5792,0,0,3.5026,3.5073,3.5115,3.5212,3.5255,3.5326,3.5293,3.5369,3.5422,3.5419,3.5515,3.5549,3.5614,3.572,3.5769,3.5751,3.5927,3.5878,3.5884,3.589,3.595,3.5966,3.5979,3.5797,3.5796,3.5796,0,0,3.5127,3.517,3.5249,3.5293,3.5359,3.5385,3.5404,3.547,3.5492,3.5589,3.5588,3.5651,3.5772,3.5818,3.5857,3.5977,3.5973,3.5998,3.6051,3.6111,3.6124,3.6136,3.6179,3.6194,3.6008,3.6008,3.6008,0,3.5164,3.527,3.529,3.5367,3.541,3.5409,3.549,3.5532,3.5617,3.5647,3.5626,3.5777,3.582,3.5937,3.5966,3.5998,3.6021,3.599,3.612,3.6132,3.6143,3.6185,3.6201,3.6011,3.6011,3.601,3.601,0,3.5312,3.5385,3.5441,3.5523,3.5572,3.565,3.5683,3.5731,3.5739,3.5767,3.5866,3.5918,3.5997,3.6025,3.6034,3.6144,3.6131,3.6115,3.6076,3.6161,3.6201,3.6217,3.6015,3.6014,3.6013,3.6012,0,0,3.543,3.5522,3.5542,3.5579,3.5652,3.571,3.5788,3.5864,3.5905,3.5963,3.603,3.6132,3.6117,3.6162,3.6176,3.6229,3.6321,3.6206,3.6208,3.6226,3.6446,3.6458,3.6476,3.6318,3.6322,3.6324,3.6441,0,3.554,3.5679,3.57,3.5822,3.5891,3.5891,3.596,3.6012,3.6041,3.6104,3.6136,3.6208,3.6183,3.621,3.6262,3.6298,3.6365,3.629,3.6382,3.6385,3.6366,3.6497,3.651,3.6617,3.6456,3.6459,3.6461,0,3.5686,3.5748,3.5877,3.5941,3.5971,3.6032,3.6103,3.6163,3.6223,3.624,3.629,3.6297,3.638,3.6337,3.6451,3.64,3.6439,3.6462,3.6467,3.6477,3.6428,3.651,3.6652,3.6668,3.6485,3.6483,3.6481,0,3.5761,3.5876,3.5969,3.6,3.6077,3.612,3.6154,3.6211,3.6255,3.6318,3.6347,3.6419,3.6458,3.6514,3.6541,3.6507,3.6654,3.6613,3.6671,3.667,3.6702,3.67,3.6852,3.6726,3.6726,3.6726,3.6725,0,3.5881,3.596,3.6003,3.606,3.6149,3.6172,3.626,3.6293,3.6343,3.6407,3.6412,3.6472,3.6504,3.6569,3.6591,3.6682,3.67,3.6717,3.6722,3.6717,3.6715,3.6743,3.6736,3.673,3.6729,3.6728,3.6728,0,3.5979,3.6011,3.6112,3.6176,3.6194,3.6256,3.6312,3.6367,3.6395,3.6476,3.6496,3.6541,3.6618,3.665,3.6744,3.6759,3.6864,3.6863,3.6844,3.6845,3.6901,3.6896,3.7078,3.7103,3.696,3.6961,3.6962,0,3.6054,3.6115,3.6185,3.6228,3.6263,3.6332,3.6377,3.6403,3.645,3.6523,3.657,3.6646,3.6709,3.6831,3.6873,3.6945,3.6946,3.7005,3.6957,3.695,3.6948,3.6944,3.695,3.7014,3.7015,3.7016,3.7017,0,3.6184,3.6197,3.6261,3.6332,3.6385,3.6442,3.6498,3.6533,3.6567,3.662,3.6698,3.6746,3.6842,3.6918,3.6993,3.7029,3.703,3.7032,3.7049,3.7045,3.7031,3.704,3.6868,3.7028,3.7027,3.7026,3.7025,3.7025,3.6274,3.6328,3.6386,3.6458,3.6502,3.6554,3.6609,3.6644,3.6709,3.6789,3.68,3.6884,3.6943,3.7043,3.7082,3.7148,3.7133,3.7158,3.7164,3.717,3.7174,3.702,3.7162,3.7161,3.7161,3.7161,3.7161,0,3.6404,3.6441,3.6507,3.6584,3.6641,3.6635,3.6697,3.6745,3.6818,3.6872,3.6933,3.7023,3.7097,3.7144,3.7219,3.7263,3.7265,3.7282,3.7279,3.7287,3.7183,3.716,3.7279,3.7279,3.7279,3.7279,3.7279,3.7279,3.6479,3.657,3.659,3.6703,3.674,3.6822,3.6857,3.6905,3.6949,3.7048,3.711,3.7139,3.7191,3.727,3.7337,3.7349,3.7377,3.7395,3.7406,3.7307,3.7295,3.7283,3.7262,3.74,3.74,3.7505,3.7506,3.7507]},{"header":{"parameterUnit":"m.s-1","parameterCategory":1,"la1":30.2991,"la2":30.254,"lo1":-89.0895,"lo2":-89.0444,"dy":0.0017,"dx":0.0017,"nx":28,"ny":28,"refTime":"2025-07-31T09:00:00:Z","depth":0,"parameterNumber":3,"parameterNumberName":"V-component_of_WINDS"},"data":[0,0,0,0,0,0,0,0,0,0,0,0,0,0,0,0,0,0,0,0,0,0,0,0,0,0,0,0,0,0,0,0,0,0,0,0,0,0,0,0,0,0,0,0,0,0,0,0,0,0,0,0,0,0,0,0,0,0,0.6156,0.6157,0,0.6185,0.6185,0.6186,0.6183,0.6183,0.6182,0.6182,0.6213,0.6214,0.6215,0,0,0,0,0,0,0,0,0,0,0,0,0,0.6099,0.61,0.6156,0.6157,0.6157,0.6185,0.6185,0.6186,0.6183,0.6183,0.6182,0.6182,0.6212,0.6214,0.6215,0,0,0,0,0,0,0,0,0,0,0,0,0,0.6125,0.61,0.6156,0.6159,0.616,0.6185,0.6185,0.6186,0.6183,0.6183,0.6182,0.6181,0.6212,0.6213,0.6215,0.624,0,0,0.6221,0.6222,0,0,0,0,0,0,0,0,0.6124,0.6127,0.6158,0.6159,0.6159,0.618,0.6176,0.6204,0.6183,0.6174,0.6182,0.6181,0.6202,0.6205,0.6212,0.6241,0.6243,0.6221,0.6222,0.6223,0.6223,0,0,0,0,0,0,0,0.6122,0.6126,0.6168,0.6159,0.6159,0.6159,0.6162,0.6182,0.6192,0.6175,0.6175,0.6178,0.6202,0.621,0.6212,0.6243,0.6221,0.6223,0.6224,0.6224,0.6293,0.6293,0,0,0,0,0,0,0.6119,0.6125,0.6167,0.6168,0.614,0.616,0.6164,0.6174,0.6191,0.6193,0.6179,0.6178,0.6207,0.621,0.6213,0.6243,0.6223,0.6225,0.6226,0.6292,0.6293,0.6293,0,0,0,0,0,0,0.6118,0.6123,0.6166,0.6146,0.6152,0.6162,0.6174,0.6175,0.6182,0.6194,0.6196,0.6185,0.6207,0.6211,0.6233,0.6244,0.6225,0.6227,0.6291,0.6292,0.6293,0.6301,0,0,0,0,0,0,0.6117,0.6123,0.6132,0.6147,0.6153,0.6185,0.6174,0.6176,0.6185,0.6185,0.62,0.6202,0.6207,0.623,0.6235,0.6246,0.6229,0.629,0.6292,0.6293,0.63,0.6303,0.6305,0,0,0,0,0,0.6114,0.6134,0.6133,0.6138,0.6165,0.6185,0.6189,0.6193,0.6186,0.6196,0.6203,0.6202,0.6241,0.6232,0.6238,0.6249,0.629,0.6291,0.6293,0.6299,0.6302,0.6305,0,0,0,0,0,0,0.6122,0.6136,0.6135,0.616,0.6171,0.6185,0.6197,0.6196,0.621,0.6209,0.6214,0.6217,0.6239,0.6246,0.6236,0.6273,0.6265,0.6267,0.6268,0.6271,0.6273,0.6271,0.623,0,0,0,0,0,0.6126,0.6141,0.6153,0.6174,0.618,0.6187,0.6196,0.6198,0.621,0.6215,0.6225,0.6236,0.6251,0.6261,0.6276,0.6301,0.6304,0.6311,0.6314,0.6315,0.6318,0.633,0.6333,0.6299,0.6299,0.6299,0,0,0.6136,0.6146,0.6155,0.6176,0.6185,0.62,0.6192,0.6209,0.622,0.6218,0.6239,0.6246,0.626,0.6283,0.6293,0.6289,0.6328,0.6317,0.6319,0.632,0.6332,0.6335,0.6338,0.63,0.63,0.6299,0,0,0.6162,0.617,0.6188,0.6197,0.621,0.6215,0.6219,0.6232,0.6236,0.6257,0.6256,0.6269,0.6295,0.6305,0.6313,0.6339,0.6338,0.6344,0.6355,0.6367,0.637,0.6373,0.6381,0.6385,0.6346,0.6346,0.6346,0,0.6172,0.6195,0.6198,0.6214,0.6223,0.6221,0.6239,0.6247,0.6265,0.627,0.6265,0.6297,0.6306,0.6331,0.6337,0.6344,0.6348,0.6342,0.6369,0.6372,0.6374,0.6383,0.6386,0.6346,0.6346,0.6346,0.6346,0,0.6207,0.6222,0.6235,0.6251,0.6261,0.6278,0.6283,0.6293,0.6293,0.6298,0.6319,0.6329,0.6345,0.6351,0.6352,0.6375,0.6372,0.6368,0.636,0.6378,0.6386,0.6389,0.6347,0.6347,0.6347,0.6347,0,0,0.6239,0.6255,0.626,0.6266,0.6279,0.6292,0.6308,0.6323,0.633,0.6342,0.6356,0.6377,0.6372,0.6381,0.6383,0.6394,0.6413,0.6389,0.6389,0.6392,0.6438,0.6441,0.6445,0.6412,0.6412,0.6413,0.6437,0,0.6266,0.6294,0.6296,0.6322,0.6336,0.6333,0.6347,0.6357,0.6361,0.6374,0.6379,0.6393,0.6387,0.6392,0.6402,0.6408,0.6422,0.6407,0.6424,0.6425,0.6421,0.6449,0.6453,0.6475,0.644,0.644,0.6441,0,0.6301,0.6312,0.6339,0.6349,0.6355,0.6367,0.638,0.6392,0.6402,0.6405,0.6414,0.6414,0.643,0.642,0.6442,0.6431,0.6438,0.6442,0.6443,0.6445,0.6434,0.6452,0.6482,0.6485,0.6446,0.6445,0.6445,0,0.6321,0.6343,0.6362,0.6367,0.638,0.6388,0.6394,0.6403,0.6411,0.6422,0.6428,0.6441,0.6448,0.6458,0.6461,0.6454,0.6482,0.6473,0.6485,0.6485,0.6492,0.6491,0.6523,0.6496,0.6496,0.6496,0.6496,0,0.6351,0.6367,0.6371,0.6382,0.64,0.6402,0.642,0.6424,0.6433,0.6445,0.6443,0.6454,0.6458,0.647,0.6472,0.6489,0.6493,0.6495,0.6495,0.6495,0.6495,0.65,0.6499,0.6497,0.6496,0.6496,0.6496,0,0.6377,0.638,0.64,0.6409,0.6412,0.6424,0.6432,0.6443,0.6446,0.6461,0.6465,0.6471,0.6484,0.6488,0.6505,0.6506,0.6526,0.6525,0.6523,0.6523,0.6534,0.6533,0.6571,0.6575,0.6545,0.6545,0.6545,0,0.6395,0.6408,0.6418,0.6425,0.6431,0.6443,0.6451,0.6453,0.6461,0.6472,0.6481,0.6494,0.6505,0.6527,0.6532,0.6544,0.6544,0.6556,0.6546,0.6544,0.6543,0.6543,0.6544,0.6558,0.6559,0.6559,0.6559,0,0.6428,0.6428,0.644,0.6451,0.646,0.6469,0.6478,0.6484,0.6487,0.6496,0.6509,0.6518,0.6533,0.6546,0.6558,0.6564,0.6562,0.6562,0.6565,0.6565,0.6563,0.6564,0.6528,0.6561,0.6561,0.6561,0.6561,0.6561,0.6451,0.6461,0.6469,0.6481,0.6487,0.6495,0.6505,0.6509,0.652,0.6533,0.6533,0.6547,0.6556,0.6571,0.6577,0.6588,0.6584,0.6589,0.6591,0.6592,0.6592,0.6561,0.659,0.659,0.659,0.659,0.659,0,0.6483,0.6487,0.6498,0.651,0.6519,0.6515,0.6524,0.6532,0.6545,0.6552,0.6562,0.6577,0.6589,0.6594,0.6606,0.6613,0.6613,0.6616,0.6616,0.6617,0.6595,0.6591,0.6617,0.6617,0.6617,0.6617,0.6617,0.6617,0.6501,0.6517,0.6518,0.6538,0.6542,0.6556,0.6561,0.6568,0.6574,0.659,0.6599,0.6603,0.6609,0.6621,0.6631,0.6633,0.6637,0.6641,0.6642,0.6622,0.6619,0.6616,0.6612,0.6642,0.6642,0.6663,0.6663,0.6663]}]]